[[{"header":{"parameterUnit":"m.s-1","parameterCategory":1,"la1":30.2991,"la2":30.254,"lo1":-89.0895,"lo2":-89.0444,"dy":0.0017,"dx":0.0017,"nx":28,"ny":28,"refTime":"2024-05-15T21:00:00:Z","depth":0,"parameterNumber":2,"parameterNumberName":"U-component_of_WINDS"},"data":[0,0,0,0,0,0,0,0,0,0,0,0,0,0,0,0,0,0,0,0,0,0,0,0,0,0,0,0,0,0,0,0,0,0,0,0,0,0,0,0,0,0,0,0,0,0,0,0,0,0,0,0,0,0,0,0,0,0,-0.1041,-0.1041,0,-0.1049,-0.1049,-0.1049,-0.1084,-0.1085,-0.1086,-0.1086,-0.1092,-0.1092,-0.1091,0,0,0,0,0,0,0,0,0,0,0,0,0,-0.1057,-0.1057,-0.1041,-0.1041,-0.1041,-0.1049,-0.1049,-0.1049,-0.1084,-0.1085,-0.1086,-0.1087,-0.1093,-0.1092,-0.1091,0,0,0,0,0,0,0,0,0,0,0,0,0,-0.1056,-0.1056,-0.1041,-0.106,-0.1062,-0.1049,-0.1049,-0.1049,-0.1084,-0.1085,-0.1086,-0.1087,-0.1093,-0.1092,-0.1091,-0.106,0,0,-0.1088,-0.1088,0,0,0,0,0,0,0,0,-0.1056,-0.1055,-0.1057,-0.1059,-0.106,-0.1067,-0.1056,-0.1053,-0.1083,-0.1075,-0.1086,-0.1088,-0.1083,-0.1083,-0.1081,-0.1061,-0.1061,-0.1088,-0.1088,-0.1087,-0.1087,0,0,0,0,0,0,0,-0.1056,-0.1055,-0.1044,-0.1057,-0.1059,-0.1068,-0.1069,-0.1056,-0.1072,-0.1076,-0.1079,-0.1079,-0.1084,-0.1082,-0.1082,-0.1061,-0.1088,-0.1087,-0.1087,-0.1086,-0.1015,-0.1014,0,0,0,0,0,0,-0.1053,-0.1055,-0.1044,-0.1044,-0.1061,-0.1066,-0.1068,-0.1063,-0.1072,-0.1075,-0.1078,-0.1081,-0.1083,-0.1083,-0.1082,-0.1046,-0.1087,-0.1086,-0.1086,-0.1016,-0.1015,-0.1013,0,0,0,0,0,0,-0.1054,-0.1052,-0.1044,-0.105,-0.105,-0.1065,-0.106,-0.1063,-0.1061,-0.1074,-0.1076,-0.1073,-0.1084,-0.1083,-0.1065,-0.1047,-0.1086,-0.1085,-0.1018,-0.1016,-0.1014,-0.0974,0,0,0,0,0,0,-0.1054,-0.1052,-0.104,-0.105,-0.1049,-0.1027,-0.1059,-0.1062,-0.106,-0.1063,-0.107,-0.1072,-0.1085,-0.1067,-0.1065,-0.1046,-0.1084,-0.102,-0.1017,-0.1015,-0.0977,-0.0971,-0.0965,0,0,0,0,0,-0.1054,-0.1029,-0.104,-0.1038,-0.1035,-0.1026,-0.1026,-0.1041,-0.1058,-0.1046,-0.1054,-0.1072,-0.105,-0.1065,-0.1062,-0.1043,-0.1021,-0.1018,-0.1015,-0.0979,-0.0972,-0.0966,0,0,0,0,0,0,-0.1016,-0.103,-0.1043,-0.1019,-0.1021,-0.1032,-0.1018,-0.1033,-0.103,-0.1033,-0.1052,-0.1054,-0.1033,-0.1037,-0.1053,-0.1014,-0.1038,-0.1035,-0.1012,-0.1005,-0.0999,-0.0998,-0.1084,0,0,0,0,0,-0.1005,-0.0996,-0.1009,-0.0987,-0.0988,-0.1002,-0.0999,-0.1011,-0.1013,-0.1014,-0.1021,-0.1022,-0.1016,-0.1011,-0.1005,-0.0978,-0.098,-0.0964,-0.0958,-0.0954,-0.095,-0.0935,-0.0928,-0.1003,-0.1003,-0.1003,0,0,-0.0982,-0.0989,-0.0982,-0.098,-0.0983,-0.0973,-0.1003,-0.0991,-0.0984,-0.1012,-0.0996,-0.1001,-0.1004,-0.0981,-0.0971,-0.0983,-0.093,-0.095,-0.0946,-0.0945,-0.0931,-0.0924,-0.0918,-0.1001,-0.1002,-0.1002,0,0,-0.0934,-0.0939,-0.0921,-0.0923,-0.0928,-0.0938,-0.0933,-0.0942,-0.0947,-0.0931,-0.0952,-0.0943,-0.0932,-0.0933,-0.0932,-0.0885,-0.0901,-0.0883,-0.0853,-0.0838,-0.0832,-0.0827,-0.081,-0.0803,-0.088,-0.088,-0.088,0,-0.0905,-0.0891,-0.091,-0.0897,-0.0895,-0.0921,-0.0903,-0.0904,-0.0906,-0.0904,-0.0919,-0.0904,-0.0908,-0.0886,-0.0874,-0.0873,-0.0868,-0.0882,-0.0832,-0.0827,-0.0822,-0.0806,-0.0799,-0.0877,-0.0878,-0.0878,-0.0878,0,-0.0854,-0.0844,-0.0829,-0.0831,-0.0828,-0.0812,-0.0828,-0.0823,-0.0835,-0.0844,-0.0827,-0.0833,-0.0829,-0.0825,-0.0837,-0.0804,-0.0811,-0.0828,-0.0853,-0.0812,-0.0797,-0.0791,-0.0874,-0.0875,-0.0876,-0.0876,0,0,-0.0781,-0.0794,-0.0788,-0.0789,-0.0796,-0.0789,-0.0775,-0.0771,-0.0766,-0.0767,-0.0754,-0.0744,-0.076,-0.0759,-0.0772,-0.0759,-0.0721,-0.0778,-0.0778,-0.0766,-0.0684,-0.067,-0.0663,-0.0732,-0.0731,-0.073,-0.0684,0,-0.0735,-0.0711,-0.0728,-0.0701,-0.0692,-0.0717,-0.0705,-0.0708,-0.0715,-0.0709,-0.0718,-0.071,-0.0732,-0.0731,-0.072,-0.0728,-0.0705,-0.0732,-0.072,-0.072,-0.0717,-0.0655,-0.064,-0.0596,-0.0678,-0.0677,-0.0676,0,-0.0677,-0.0676,-0.0648,-0.0657,-0.0654,-0.0642,-0.0641,-0.0634,-0.0638,-0.0645,-0.0644,-0.066,-0.0646,-0.0671,-0.0652,-0.067,-0.0667,-0.067,-0.0669,-0.0667,-0.0694,-0.065,-0.0582,-0.0575,-0.0667,-0.0668,-0.0669,0,-0.0626,-0.0617,-0.0599,-0.06,-0.061,-0.0601,-0.0605,-0.061,-0.0607,-0.0605,-0.0604,-0.06,-0.0598,-0.0595,-0.061,-0.0627,-0.0589,-0.0615,-0.0593,-0.0592,-0.0582,-0.0583,-0.0511,-0.0582,-0.0583,-0.0583,-0.0583,0,-0.0571,-0.0553,-0.0576,-0.0565,-0.0545,-0.0565,-0.0545,-0.0552,-0.0556,-0.0546,-0.0568,-0.0559,-0.0579,-0.0572,-0.0583,-0.0565,-0.0565,-0.0569,-0.0572,-0.0566,-0.0565,-0.0563,-0.0566,-0.0581,-0.0581,-0.0582,-0.0582,0,-0.0509,-0.0524,-0.0507,-0.0518,-0.0521,-0.0505,-0.0515,-0.0505,-0.0515,-0.0503,-0.0501,-0.0516,-0.0508,-0.0523,-0.0517,-0.0525,-0.0499,-0.0508,-0.0498,-0.05,-0.0476,-0.0478,-0.04,-0.039,-0.0469,-0.0468,-0.0467,0,-0.0473,-0.046,-0.047,-0.0465,-0.0468,-0.046,-0.0458,-0.0477,-0.0473,-0.0476,-0.0466,-0.046,-0.0456,-0.0443,-0.0453,-0.0448,-0.0456,-0.0429,-0.0456,-0.045,-0.0454,-0.0454,-0.0453,-0.0423,-0.0422,-0.0422,-0.0421,0,-0.0407,-0.0415,-0.041,-0.0408,-0.0404,-0.0403,-0.0404,-0.0399,-0.0419,-0.0413,-0.0406,-0.0403,-0.0398,-0.0391,-0.0389,-0.0393,-0.041,-0.0413,-0.0407,-0.04,-0.0395,-0.0396,-0.0482,-0.0414,-0.0415,-0.0415,-0.0416,-0.0416,-0.0356,-0.0345,-0.0351,-0.0345,-0.0347,-0.0347,-0.0338,-0.0348,-0.0342,-0.0339,-0.0351,-0.034,-0.0345,-0.0344,-0.0346,-0.0338,-0.035,-0.0342,-0.034,-0.0337,-0.0333,-0.0397,-0.0338,-0.0338,-0.0338,-0.0339,-0.0339,0,-0.029,-0.0295,-0.0289,-0.0289,-0.0285,-0.0302,-0.0304,-0.0298,-0.0289,-0.0292,-0.0288,-0.0279,-0.0274,-0.0284,-0.028,-0.0271,-0.0279,-0.0269,-0.0269,-0.027,-0.0323,-0.0328,-0.0263,-0.0263,-0.0263,-0.0263,-0.0263,-0.0263,-0.0255,-0.0237,-0.0246,-0.023,-0.0235,-0.0226,-0.0225,-0.0225,-0.0227,-0.0217,-0.0212,-0.0219,-0.0225,-0.0221,-0.0216,-0.022,-0.0216,-0.0204,-0.0209,-0.0259,-0.0266,-0.0273,-0.0277,-0.0203,-0.0203,-0.0157,-0.0156,-0.0156]},{"header":{"parameterUnit":"m.s-1","parameterCategory":1,"la1":30.2991,"la2":30.254,"lo1":-89.0895,"lo2":-89.0444,"dy":0.0017,"dx":0.0017,"nx":28,"ny":28,"refTime":"2024-05-15T21:00:00:Z","depth":0,"parameterNumber":3,"parameterNumberName":"V-component_of_WINDS"},"data":[0,0,0,0,0,0,0,0,0,0,0,0,0,0,0,0,0,0,0,0,0,0,0,0,0,0,0,0,0,0,0,0,0,0,0,0,0,0,0,0,0,0,0,0,0,0,0,0,0,0,0,0,0,0,0,0,0,0,4.7286,4.7286,0,4.7317,4.7318,4.7318,4.7284,4.7283,4.7281,4.728,4.7309,4.7311,4.7313,0,0,0,0,0,0,0,0,0,0,0,0,0,4.7191,4.7193,4.7286,4.7286,4.7286,4.7317,4.7318,4.7318,4.7284,4.7283,4.7281,4.728,4.7308,4.731,4.7313,0,0,0,0,0,0,0,0,0,0,0,0,0,4.7228,4.7194,4.7286,4.7273,4.7273,4.7317,4.7318,4.7318,4.7285,4.7283,4.7281,4.7279,4.7307,4.731,4.7313,4.737,0,0,4.7322,4.7323,0,0,0,0,0,0,0,0,4.7226,4.7232,4.7275,4.7274,4.7273,4.7295,4.7295,4.7336,4.7285,4.728,4.728,4.7278,4.7305,4.7308,4.7318,4.7371,4.7373,4.7322,4.7324,4.7325,4.7326,0,0,0,0,0,0,0,4.7224,4.723,4.7298,4.7275,4.7275,4.7265,4.7268,4.7302,4.7303,4.728,4.7278,4.7282,4.7305,4.7316,4.7319,4.7373,4.7322,4.7325,4.7327,4.7328,4.7474,4.7476,0,0,0,0,0,0,4.7223,4.7228,4.7297,4.7299,4.7245,4.7268,4.7272,4.729,4.7303,4.7303,4.7284,4.7281,4.7312,4.7315,4.732,4.7387,4.7325,4.7328,4.733,4.7472,4.7474,4.7476,0,0,0,0,0,0,4.7221,4.723,4.7296,4.7263,4.7271,4.7272,4.7293,4.7291,4.7303,4.7305,4.7305,4.7295,4.731,4.7316,4.7358,4.7388,4.7329,4.7332,4.7469,4.7472,4.7475,4.7523,0,0,0,0,0,0,4.7219,4.7229,4.7252,4.7264,4.7273,4.7335,4.7294,4.7294,4.7308,4.7304,4.7316,4.7316,4.7309,4.7354,4.7361,4.7391,4.7334,4.7466,4.7471,4.7474,4.7519,4.7527,4.7535,0,0,0,0,0,4.7215,4.7263,4.7253,4.7262,4.7301,4.7337,4.7342,4.7334,4.7311,4.7333,4.7335,4.7316,4.7383,4.7358,4.7366,4.7397,4.7465,4.7469,4.7474,4.7515,4.7526,4.7535,0,0,0,0,0,0,4.7253,4.7265,4.7254,4.7307,4.7322,4.7331,4.7359,4.7345,4.7365,4.736,4.7348,4.7351,4.7396,4.7401,4.7373,4.7453,4.742,4.7426,4.7449,4.7459,4.7466,4.7464,4.7337,0,0,0,0,0,4.7268,4.7298,4.7305,4.7351,4.7359,4.7358,4.7373,4.7366,4.738,4.7385,4.739,4.7403,4.7427,4.7443,4.7465,4.7519,4.7521,4.7544,4.7552,4.7559,4.7564,4.7593,4.7603,4.7492,4.7492,4.7492,0,0,4.7299,4.7309,4.7328,4.7359,4.737,4.7399,4.7363,4.7396,4.7417,4.7389,4.743,4.7434,4.7447,4.7496,4.7517,4.7501,4.7596,4.7565,4.757,4.7572,4.7599,4.7609,4.7619,4.7495,4.7495,4.7494,0,0,4.737,4.738,4.742,4.7431,4.7448,4.7446,4.7456,4.7468,4.7469,4.751,4.749,4.7514,4.7556,4.7567,4.7577,4.7652,4.7635,4.7659,4.7701,4.7729,4.7738,4.7745,4.7772,4.7781,4.7665,4.7665,4.7665,0,4.7405,4.745,4.7442,4.7476,4.749,4.7468,4.7507,4.7518,4.754,4.755,4.7531,4.7583,4.7591,4.7641,4.7659,4.7669,4.7678,4.7658,4.7737,4.7745,4.7752,4.7777,4.7787,4.7668,4.7667,4.7667,4.7667,0,4.7493,4.7524,4.7554,4.7578,4.7595,4.7631,4.7627,4.7646,4.7636,4.7637,4.7678,4.7686,4.771,4.7721,4.7712,4.777,4.7759,4.7739,4.7706,4.7766,4.7789,4.7798,4.7672,4.7671,4.767,4.7669,0,0,4.7589,4.7608,4.7619,4.7629,4.7645,4.7668,4.7703,4.7727,4.7743,4.7759,4.7787,4.7823,4.7805,4.7817,4.7808,4.7833,4.7891,4.781,4.781,4.7825,4.7955,4.797,4.7982,4.788,4.7882,4.7883,4.7954,0,4.766,4.7723,4.7716,4.7775,4.7803,4.7782,4.7812,4.7824,4.7825,4.7848,4.7848,4.7874,4.7848,4.7855,4.7878,4.7879,4.7917,4.7874,4.7905,4.7906,4.7903,4.7994,4.801,4.8077,4.7963,4.7964,4.7966,0,4.7752,4.7773,4.7835,4.7846,4.7858,4.7886,4.7907,4.7929,4.7942,4.7941,4.7955,4.7942,4.7976,4.7942,4.7987,4.7958,4.797,4.7972,4.7975,4.7978,4.794,4.7999,4.8098,4.8108,4.798,4.7979,4.7978,0,4.7816,4.7859,4.7902,4.7911,4.7926,4.7945,4.7952,4.7963,4.7978,4.7996,4.8006,4.8027,4.8038,4.8055,4.8048,4.8023,4.8094,4.806,4.8094,4.8094,4.811,4.8109,4.8212,4.8117,4.8117,4.8117,4.8117,0,4.7897,4.7936,4.7931,4.7957,4.8,4.7991,4.8032,4.8036,4.8046,4.8072,4.8054,4.8078,4.8067,4.809,4.8084,4.8123,4.8128,4.8127,4.8125,4.8129,4.8129,4.8137,4.8133,4.812,4.8119,4.8119,4.8118,0,4.7976,4.7975,4.802,4.803,4.8033,4.8064,4.8072,4.8096,4.8095,4.8128,4.8135,4.8133,4.8159,4.8154,4.8182,4.8178,4.8227,4.8219,4.8223,4.8221,4.8256,4.8252,4.8368,4.8382,4.8278,4.8279,4.828,0,4.8028,4.8057,4.8071,4.8088,4.8096,4.8123,4.8138,4.813,4.8146,4.8163,4.8185,4.8209,4.8229,4.8271,4.8272,4.8293,4.8286,4.8325,4.8289,4.8292,4.8287,4.8285,4.8288,4.8332,4.8333,4.8334,4.8335,0,4.812,4.8118,4.8141,4.8165,4.8184,4.8201,4.8217,4.8231,4.8224,4.8243,4.827,4.8285,4.8314,4.8339,4.8359,4.8364,4.8348,4.8346,4.8355,4.836,4.8361,4.8361,4.8243,4.8344,4.8343,4.8342,4.8342,4.8341,4.8187,4.8212,4.8226,4.8253,4.8264,4.8279,4.8302,4.8304,4.8327,4.8351,4.8344,4.8375,4.8386,4.8411,4.8419,4.8442,4.8427,4.844,4.8444,4.8447,4.8451,4.8357,4.8445,4.8445,4.8445,4.8445,4.8444,0,4.8278,4.8286,4.8311,4.8334,4.8355,4.8339,4.8355,4.8373,4.8401,4.8413,4.8433,4.8464,4.8487,4.849,4.8512,4.853,4.8523,4.8536,4.8534,4.8536,4.8463,4.8453,4.8541,4.8541,4.8541,4.8541,4.8541,4.8541,4.8329,4.837,4.837,4.8416,4.8423,4.8454,4.8465,4.8478,4.8488,4.8524,4.8544,4.8545,4.8554,4.8576,4.8596,4.8596,4.8605,4.8621,4.8618,4.855,4.8541,4.8532,4.8523,4.8623,4.8623,4.8689,4.8689,4.869]}]]